EW4784 Weather Reports


Display with metric or nautical units.
time (UTC)temp
F
wind
direction
speed
MPH
gust
MPH
rain 1hr
in
rain 24hr
in
rain mn
in
humidity
%
barometer
mb
20260831132151 75 281 0.0 1.0 0.00 0.24 0.00 84 1017.1
20260831131651 75 269 1.0 11.0 0.00 0.25 0.00 84 1017.1
20260831131149 74 272 0.0 2.0 0.00 0.26 0.00 84 1017.0
20260831130649 74 294 0.0 3.0 0.00 0.28 0.00 85 1017.0
20260831130148 74 249 0.0 0.0 0.00 0.29 0.00 86 1017.1
20260831125646 73 276 0.0 5.0 0.00 0.30 0.00 86 1017.1
20260831125145 73 279 0.0 0.0 0.00 0.31 0.00 86 1017.0
20260831124645 73 286 0.0 4.0 0.00 0.32 0.00 86 1017.0
20260831124144 73 289 0.0 0.0 0.00 0.33 0.00 86 1017.1
20260831123703 73 308 0.0 4.0 0.00 0.34 0.00 86 1017.1
20260831123142 73 227 0.0 0.0 0.00 0.34 0.00 86 1017.1
20260831122640 72 277 1.0 6.0 0.00 0.34 0.00 86 1017.0
20260831122139 72 267 0.0 4.0 0.00 0.34 0.00 86 1017.0
20260831121638 72 168 0.0 2.0 0.00 0.34 0.00 86 1016.9
20260831121158 72 288 0.0 4.0 0.00 0.34 0.00 86 1016.9
20260831120657 72 288 0.0 0.0 0.00 0.34 0.00 87 1016.9
20260831120135 72 300 0.0 2.0 0.00 0.35 0.00 87 1017.0
20260831115635 72 168 0.0 0.0 0.00 0.35 0.00 87 1017.0
20260831115133 72 306 0.0 0.0 0.00 0.35 0.00 87 1017.1
20260831114632 72 306 0.0 0.0 0.00 0.35 0.00 87 1017.1
20260831114131 72 307 0.0 4.0 0.00 0.35 0.00 87 1017.2
20260831113630 72 309 0.0 0.0 0.00 0.35 0.00 87 1017.2
20260831113129 72 307 0.0 1.0 0.00 0.35 0.00 87 1017.1
20260831112649 72 310 0.0 0.0 0.00 0.35 0.00 87 1017.1
20260831112127 72 273 0.0 2.0 0.00 0.35 0.00 87 1017.1
20260831111626 72 272 0.0 0.0 0.00 0.35 0.00 87 1017.1
20260831111146 72 299 0.0 4.0 0.00 0.35 0.00 87 1017.1
20260831110624 72 289 2.0 10.0 0.00 0.35 0.00 87 1017.1
20260831110124 72 298 1.0 11.0 0.00 0.35 0.00 87 1017.1
20260831105622 72 308 1.0 6.0 0.00 0.35 0.00 87 1017.1
20260831105142 72 297 1.0 7.0 0.00 0.35 0.00 87 1017.0
20260831104621 72 287 0.0 4.0 0.00 0.35 0.00 87 1016.9
20260831104119 72 289 2.0 11.0 0.00 0.35 0.00 87 1016.9
20260831103618 72 271 0.0 6.0 0.00 0.35 0.00 87 1017.0
20260831103117 72 279 2.0 8.0 0.00 0.35 0.00 87 1017.0
20260831102616 72 268 0.0 6.0 0.00 0.35 0.00 87 1017.0
20260831102116 72 276 0.0 0.0 0.00 0.35 0.00 87 1017.1
20260831101614 72 292 1.0 8.0 0.00 0.35 0.00 86 1017.1
20260831101134 72 295 1.0 6.0 0.00 0.35 0.00 86 1017.1
20260831100613 72 294 0.0 3.0 0.00 0.35 0.00 86 1017.0
20260831100111 72 301 0.0 4.0 0.00 0.35 0.00 86 1016.9
20260831095610 72 311 0.0 3.0 0.00 0.35 0.00 86 1016.8
20260831095109 72 288 1.0 6.0 0.00 0.36 0.00 86 1016.7
20260831094629 72 283 0.0 4.0 0.00 0.36 0.00 87 1016.8
20260831094107 72 283 0.0 3.0 0.00 0.37 0.00 87 1016.8
20260831093606 72 284 0.0 3.0 0.00 0.38 0.00 87 1016.8
20260831093105 72 301 0.0 4.0 0.00 0.38 0.00 86 1016.8
20260831092604 72 308 1.0 6.0 0.00 0.38 0.00 86 1016.9
20260831092124 72 286 0.0 3.0 0.00 0.38 0.00 86 1016.9
20260831091602 72 303 0.0 3.0 0.00 0.40 0.00 86 1016.9
20260831091101 72 284 0.0 0.0 0.00 0.40 0.00 86 1016.8
20260831090621 72 284 0.0 4.0 0.00 0.40 0.00 86 1016.8
20260831090059 72 278 0.0 6.0 0.00 0.40 0.00 87 1016.8
20260831085558 72 273 1.0 8.0 0.00 0.41 0.00 87 1016.9
20260831085057 72 275 0.0 3.0 0.00 0.41 0.00 87 1016.9
20260831084556 72 285 1.0 7.0 0.00 0.41 0.00 86 1016.9
20260831084055 72 283 0.0 0.0 0.00 0.41 0.00 87 1016.8
20260831083554 72 298 0.0 12.0 0.00 0.41 0.00 87 1016.8
20260831083114 71 294 2.0 9.0 0.00 0.41 0.00 87 1016.8
20260831082552 71 307 1.0 7.0 0.00 0.41 0.00 87 1016.7
20260831082112 71 293 0.0 5.0 0.00 0.41 0.00 87 1016.6
20260831081550 71 274 0.0 5.0 0.00 0.41 0.00 87 1016.6
20260831081048 71 286 1.0 8.0 0.00 0.41 0.00 87 1016.6
20260831080548 71 298 2.0 7.0 0.00 0.41 0.00 87 1016.7
20260831080047 71 271 2.0 8.0 0.00 0.41 0.00 88 1016.7
20260831075546 71 272 3.0 10.0 0.00 0.41 0.00 88 1016.7
20260831075106 70 289 0.0 7.0 0.00 0.41 0.00 89 1016.7
20260831074605 70 270 0.0 0.0 0.00 0.41 0.00 89 1016.8
20260831074043 70 257 0.0 5.0 0.00 0.41 0.00 89 1016.8
20260831073542 70 267 1.0 9.0 0.00 0.41 0.00 89 1016.9
20260831073101 70 278 0.0 0.0 0.00 0.41 0.00 90 1016.9
20260831072539 70 281 1.0 5.0 0.00 0.41 0.00 90 1017.1
20260831072039 70 286 0.0 0.0 0.00 0.41 0.00 90 1017.2
20260831071538 70 291 1.0 9.0 0.00 0.41 0.00 90 1017.2
20260831071058 70 289 2.0 8.0 0.00 0.41 0.00 91 1017.3
20260831070557 69 301 1.0 4.0 0.00 0.41 0.00 91 1017.3
20260831070034 69 278 0.0 3.0 0.00 0.41 0.00 92 1017.3
20260831065534 69 281 0.0 4.0 0.00 0.41 0.00 92 1017.3
20260831065033 69 253 0.0 0.0 0.00 0.41 0.00 92 1017.4
20260831064531 69 250 0.0 0.0 0.00 0.41 0.00 92 1017.5
20260831064031 69 266 0.0 3.0 0.00 0.41 0.00 92 1017.6
20260831063529 69 284 0.0 4.0 0.00 0.41 0.00 92 1017.7
20260831063028 69 291 0.0 2.0 0.00 0.41 0.00 92 1017.6
20260831062528 69 295 0.0 0.0 0.00 0.41 0.00 92 1017.6
20260831062047 69 295 0.0 0.0 0.00 0.42 0.00 91 1017.5
20260831061526 70 288 0.0 0.0 0.00 0.42 0.00 91 1017.5
20260831061024 70 298 0.0 0.0 0.00 0.42 0.00 91 1017.5
20260831060544 70 305 0.0 2.0 0.00 0.42 0.00 91 1017.5
20260831060023 70 285 0.0 3.0 0.00 0.42 0.00 91 1017.5
20260831055522 70 294 1.0 4.0 0.00 0.42 0.00 91 1017.5
20260831055021 70 272 1.0 10.0 0.00 0.42 0.00 91 1017.6
20260831054519 70 270 2.0 7.0 0.00 0.42 0.00 91 1017.5
20260831054018 70 226 0.0 5.0 0.00 0.42 0.00 91 1017.5
20260831053517 70 274 1.0 10.0 0.00 0.42 0.00 91 1017.7
20260831053017 70 285 1.0 4.0 0.00 0.42 0.00 91 1017.7
20260831052515 70 302 1.0 6.0 0.00 0.42 0.00 91 1017.8
20260831052014 70 282 0.0 3.0 0.00 0.42 0.00 90 1017.8
20260831051513 70 289 0.0 3.0 0.00 0.42 0.00 90 1017.8
20260831051012 70 287 0.0 0.0 0.00 0.42 0.00 90 1017.8
20260831050532 70 281 0.0 0.0 0.00 0.42 0.00 91 1017.7
20260831050010 70 281 0.0 4.0 0.00 0.42 0.00 91 1017.7
20260831045509 70 287 0.0 0.0 0.00 0.42 0.00 91 1017.7
20260831045008 70 265 0.0 3.0 0.00 0.42 0.00 91 1017.8
20260831044528 70 283 1.0 7.0 0.00 0.42 0.00 91 1017.8
20260831044007 70 290 0.0 2.0 0.00 0.42 0.00 91 1017.8
20260831043505 70 274 0.0 2.0 0.00 0.42 0.00 91 1017.9
20260831043005 70 270 1.0 7.0 0.00 0.42 0.00 91 1017.9
20260831042504 70 285 0.0 5.0 0.00 0.42 0.00 91 1017.9
20260831042023 70 293 0.0 0.0 0.00 0.42 0.00 91 1017.9
20260831041502 70 266 1.0 10.0 0.00 0.42 0.00 91 1017.9
20260831041001 70 244 1.0 9.0 0.00 0.42 0.00 91 1017.9
20260831040459 70 282 1.0 7.0 0.00 0.42 0.00 91 1018.0
20260831035958 70 296 0.0 4.0 0.00 0.42 0.42 91 1018.0
20260831035457 70 271 1.0 8.0 0.00 0.42 0.42 91 1018.0
20260831035018 70 236 1.0 5.0 0.00 0.42 0.42 91 1018.0
20260831034455 70 275 0.0 0.0 0.00 0.42 0.42 91 1018.0
20260831033954 70 289 0.0 8.0 0.00 0.42 0.42 90 1018.1
20260831033453 70 183 0.0 0.0 0.00 0.42 0.42 90 1018.0
20260831032952 70 183 0.0 0.0 0.00 0.42 0.42 90 1018.0
20260831032451 70 188 1.0 10.0 0.00 0.42 0.42 90 1018.0
20260831031950 70 215 0.0 2.0 0.00 0.42 0.42 90 1018.0
20260831031449 70 219 1.0 6.0 0.00 0.42 0.42 90 1018.0
20260831030948 70 272 0.0 4.0 0.00 0.42 0.42 89 1017.9
20260831030508 70 207 0.0 4.0 0.00 0.42 0.42 89 1017.9
20260831025947 70 211 0.0 6.0 0.00 0.42 0.42 89 1017.8
20260831025445 70 189 1.0 15.0 0.00 0.42 0.42 89 1017.8
20260831024944 70 191 1.0 9.0 0.00 0.42 0.42 89 1017.8
20260831024443 70 185 1.0 7.0 0.00 0.42 0.42 89 1017.8
20260831023942 70 184 1.0 5.0 0.00 0.42 0.42 89 1017.8
20260831023441 70 197 0.0 1.0 0.00 0.42 0.42 88 1017.8
20260831022941 70 183 1.0 6.0 0.00 0.42 0.42 88 1017.8
20260831022439 70 186 1.0 8.0 0.00 0.42 0.42 88 1017.7
20260831021959 70 168 1.0 8.0 0.00 0.42 0.42 88 1017.7
20260831021438 70 297 0.0 0.0 0.00 0.42 0.42 88 1017.7
20260831020957 70 193 3.0 12.0 0.00 0.42 0.42 88 1017.7
20260831020435 70 182 3.0 11.0 0.00 0.42 0.42 88 1017.7
20260831015934 70 162 1.0 8.0 0.00 0.42 0.42 88 1017.7
20260831015433 70 178 1.0 5.0 0.00 0.42 0.42 88 1017.7
20260831014932 70 185 2.0 8.0 0.00 0.42 0.42 88 1017.6
20260831014431 70 183 2.0 15.0 0.00 0.42 0.42 88 1017.6
20260831013930 70 177 1.0 6.0 0.00 0.42 0.42 88 1017.5
20260831013429 70 177 1.0 8.0 0.00 0.42 0.42 87 1017.5
20260831012928 70 167 3.0 13.0 0.00 0.42 0.42 87 1017.4
20260831012449 70 184 3.0 11.0 0.00 0.42 0.42 87 1017.5
20260831011926 70 186 1.0 10.0 0.00 0.42 0.42 87 1017.5
20260831011425 70 151 0.0 4.0 0.00 0.42 0.42 87 1017.5
20260831010925 70 179 1.0 7.0 0.00 0.42 0.42 87 1017.6
20260831010423 70 174 4.0 13.0 0.00 0.42 0.42 88 1017.5
20260831005922 70 175 1.0 6.0 0.00 0.42 0.42 88 1017.4
20260831005421 70 184 1.0 5.0 0.00 0.42 0.42 87 1017.4
20260831004921 71 169 2.0 7.0 0.00 0.42 0.42 87 1017.3
20260831004420 71 173 4.0 15.0 0.00 0.42 0.42 87 1017.3
20260831003918 71 204 3.0 12.0 0.00 0.42 0.42 87 1017.2
20260831003417 71 267 1.0 10.0 0.00 0.42 0.42 87 1017.2
20260831002916 71 186 2.0 13.0 0.00 0.42 0.42 87 1017.0
20260831002415 71 173 3.0 10.0 0.00 0.42 0.42 88 1016.9
20260831001913 71 181 4.0 14.0 0.00 0.42 0.42 88 1016.9
20260831001413 71 178 6.0 15.0 0.00 0.42 0.42 88 1016.8
20260831000912 71 181 4.0 13.0 0.00 0.42 0.42 88 1016.9
20260831000410 71 185 4.0 11.0 0.00 0.42 0.42 88 1017.0
20260830235909 71 178 4.0 8.0 0.00 0.42 0.42 88 1017.0
20260830235408 71 178 5.0 9.0 0.00 0.42 0.42 88 1017.1
20260830234907 71 179 7.0 10.0 0.00 0.42 0.42 88 1017.2
20260830234406 71 178 5.0 15.0 0.00 0.42 0.42 88 1017.3
20260830233906 71 172 2.0 8.0 0.00 0.42 0.42 88 1017.3
20260830233405 71 174 4.0 10.0 0.00 0.42 0.42 87 1017.3
20260830232904 71 181 4.0 11.0 0.00 0.42 0.42 87 1017.4
20260830232402 71 173 7.0 13.0 0.00 0.42 0.42 87 1017.4
20260830231902 71 172 3.0 9.0 0.00 0.42 0.42 87 1017.3
20260830231401 71 172 3.0 12.0 0.00 0.42 0.42 87 1017.3
20260830230859 71 178 6.0 15.0 0.00 0.42 0.42 87 1017.4
20260830230419 71 174 5.0 14.0 0.00 0.42 0.42 87 1017.5
20260830225858 71 175 3.0 15.0 0.00 0.42 0.42 87 1017.5
20260830225356 71 181 4.0 16.0 0.00 0.42 0.42 87 1017.7
20260830224856 71 183 2.0 13.0 0.00 0.42 0.42 88 1017.8
20260830224355 71 185 1.0 6.0 0.00 0.42 0.42 89 1017.8
20260830223854 71 190 1.0 6.0 0.00 0.42 0.42 89 1017.9
20260830223413 71 182 2.0 13.0 0.01 0.42 0.42 90 1017.8
20260830222851 71 179 3.0 10.0 0.01 0.42 0.42 90 1017.8
20260830222350 71 186 2.0 9.0 0.01 0.42 0.42 90 1017.8
20260830221849 71 180 2.0 7.0 0.01 0.42 0.42 91 1017.9
20260830221348 71 167 0.0 0.0 0.01 0.42 0.42 91 1018.0
20260830220908 71 182 1.0 5.0 0.01 0.42 0.42 91 1018.0
20260830220347 70 181 1.0 7.0 0.01 0.42 0.42 91 1018.0
20260830215846 70 181 1.0 5.0 0.01 0.42 0.42 91 1018.0
20260830215345 70 189 0.0 0.0 0.01 0.42 0.42 90 1018.1
20260830214843 71 189 0.0 4.0 0.01 0.42 0.42 89 1018.0
20260830214343 71 189 0.0 0.0 0.01 0.42 0.42 87 1018.1
20260830213842 72 177 1.0 7.0 0.01 0.42 0.42 85 1018.0
20260830213340 72 190 0.0 6.0 0.00 0.41 0.41 85 1018.1
20260830212839 72 186 2.0 12.0 0.00 0.41 0.41 85 1017.9
20260830212338 72 183 1.0 7.0 0.00 0.41 0.41 85 1017.8
20260830211838 72 182 1.0 10.0 0.00 0.41 0.41 86 1017.8
20260830211337 72 267 0.0 0.0 0.00 0.41 0.41 88 1017.8
20260830210835 72 185 0.0 2.0 0.00 0.41 0.41 89 1017.7
20260830210335 71 188 0.0 4.0 0.00 0.41 0.41 90 1017.7
20260830205854 71 179 1.0 7.0 0.00 0.41 0.41 90 1017.7
20260830205333 71 176 4.0 13.0 0.00 0.41 0.41 91 1017.6
20260830204852 71 185 3.0 11.0 0.00 0.41 0.41 92 1017.6
20260830204331 70 170 1.0 7.0 0.00 0.41 0.41 93 1017.5
20260830203829 70 180 2.0 11.0 0.00 0.41 0.41 93 1017.6
20260830203328 70 179 3.0 12.0 0.00 0.41 0.41 93 1017.5
20260830202848 70 190 1.0 10.0 0.00 0.41 0.41 94 1017.5
20260830202326 70 179 1.0 8.0 0.00 0.41 0.41 95 1017.6
20260830201826 70 181 5.0 14.0 0.00 0.41 0.41 95 1017.6
20260830201325 70 175 3.0 9.0 0.00 0.41 0.41 96 1017.6
20260830200824 70 177 1.0 8.0 0.00 0.41 0.41 95 1017.7
20260830200322 70 172 2.0 6.0 0.00 0.41 0.41 95 1017.6
20260830195821 70 171 2.0 7.0 0.00 0.41 0.41 96 1017.5
20260830195320 70 178 4.0 12.0 0.00 0.41 0.41 96 1017.5
20260830194819 70 172 4.0 11.0 0.00 0.41 0.41 96 1017.6
20260830194319 70 173 4.0 10.0 0.00 0.41 0.41 97 1017.6
20260830193817 70 167 1.0 5.0 0.00 0.41 0.41 97 1017.6
20260830193316 69 184 1.0 7.0 0.00 0.41 0.41 97 1017.7
20260830192815 69 189 3.0 11.0 0.00 0.41 0.41 97 1017.7
20260830192314 69 179 5.0 13.0 0.00 0.41 0.41 97 1017.7
20260830191813 69 177 5.0 19.0 0.00 0.41 0.41 97 1017.8
20260830191312 69 181 6.0 11.0 0.00 0.41 0.41 97 1017.8
20260830190811 70 179 2.0 9.0 0.00 0.41 0.41 98 1017.9
20260830190332 70 171 3.0 13.0 0.00 0.41 0.41 98 1018.0
20260830185809 69 176 1.0 5.0 0.00 0.41 0.41 98 1018.1
20260830185308 69 183 1.0 5.0 0.00 0.41 0.41 98 1018.1
20260830184807 69 180 1.0 7.0 0.00 0.41 0.41 98 1018.2
20260830184306 69 191 0.0 4.0 0.00 0.41 0.41 98 1018.1
20260830183805 69 182 1.0 6.0 0.00 0.41 0.41 98 1018.1
20260830183304 69 181 1.0 11.0 0.00 0.41 0.41 98 1018.0
20260830182824 69 185 1.0 7.0 0.00 0.41 0.41 98 1018.0
20260830182306 69 214 1.0 6.0 0.00 0.41 0.41 98 1017.9
20260830181801 69 190 4.0 13.0 0.00 0.41 0.41 98 1017.8
20260830181300 69 187 2.0 10.0 0.00 0.41 0.41 97 1017.8
20260830180759 69 187 5.0 18.0 0.00 0.41 0.41 97 1017.8
20260830180258 70 190 4.0 13.0 0.00 0.41 0.41 98 1017.8
20260830175757 70 184 5.0 22.0 0.00 0.41 0.41 98 1017.8
20260830175256 69 184 6.0 18.0 0.00 0.41 0.41 98 1017.9
20260830174755 70 187 6.0 17.0 0.00 0.41 0.41 98 1018.0
20260830174254 70 188 2.0 9.0 0.00 0.41 0.41 98 1018.0
20260830173754 70 179 4.0 17.0 0.00 0.41 0.41 99 1018.1
20260830173252 70 179 5.0 14.0 0.00 0.41 0.41 99 1018.2
20260830172751 69 188 1.0 10.0 0.00 0.41 0.41 99 1018.4
20260830172311 69 185 2.0 8.0 0.01 0.41 0.41 100 1018.6
20260830171749 67 183 1.0 12.0 0.01 0.41 0.41 99 1018.8
20260830171248 67 195 1.0 6.0 0.01 0.41 0.41 99 1018.8
20260830170747 67 182 3.0 15.0 0.01 0.41 0.41 99 1018.9
20260830170246 67 188 1.0 9.0 0.01 0.41 0.41 99 1019.0
20260830165745 67 189 1.0 9.0 0.01 0.41 0.41 99 1019.1
20260830165244 67 184 3.0 13.0 0.01 0.41 0.41 99 1019.2
20260830164742 67 187 2.0 13.0 0.01 0.41 0.41 99 1019.3
20260830164242 67 177 2.0 15.0 0.01 0.41 0.41 99 1019.5
20260830163741 67 185 2.0 6.0 0.01 0.41 0.41 100 1019.7
20260830163240 67 180 1.0 11.0 0.01 0.41 0.41 100 1019.7
20260830162739 66 184 2.0 9.0 0.01 0.41 0.41 100 1019.7
20260830162237 66 182 3.0 10.0 0.00 0.40 0.40 100 1019.9
20260830161737 66 180 2.0 7.0 0.00 0.40 0.40 100 1020.0
20260830161236 66 185 1.0 9.0 0.01 0.40 0.40 100 1020.1
20260830160735 66 175 0.0 8.0 0.01 0.40 0.40 100 1020.3
20260830160255 66 177 0.0 3.0 0.01 0.40 0.40 100 1020.4
20260830155733 66 189 0.0 5.0 0.02 0.40 0.40 99 1020.4
20260830155232 66 193 0.0 0.0 0.02 0.40 0.40 99 1020.5
20260830154752 66 181 0.0 2.0 0.04 0.40 0.40 100 1020.6
20260830154230 66 245 0.0 2.0 0.05 0.40 0.40 100 1020.6
20260830153729 66 192 0.0 5.0 0.06 0.40 0.40 99 1020.5
20260830153228 66 275 0.0 4.0 0.08 0.40 0.40 100 1020.6
20260830152726 66 257 0.0 0.0 0.10 0.40 0.40 99 1020.6
20260830152227 66 295 0.0 0.0 0.10 0.40 0.40 100 1020.7
20260830151725 66 301 0.0 0.0 0.11 0.40 0.40 99 1020.6
20260830151223 65 301 0.0 2.0 0.10 0.39 0.39 99 1020.7
20260830150722 65 287 0.0 2.0 0.11 0.39 0.39 99 1020.7
20260830150222 65 276 0.0 0.0 0.11 0.39 0.39 99 1020.7
20260830145742 65 275 0.0 6.0 0.11 0.38 0.38 99 1020.8
20260830145219 65 278 1.0 9.0 0.12 0.38 0.37 99 1020.9
20260830144718 65 277 3.0 16.0 0.11 0.36 0.36 99 1021.0
20260830144238 65 287 4.0 14.0 0.12 0.35 0.35 99 1021.0
20260830143716 65 296 4.0 14.0 0.11 0.34 0.34 99 1021.0
20260830143215 65 312 3.0 12.0 0.11 0.32 0.32 99 1020.9
20260830142715 65 299 4.0 9.0 0.10 0.30 0.30 99 1020.8
20260830142214 65 282 4.0 9.0 0.10 0.29 0.29 99 1020.7
20260830141713 65 284 5.0 12.0 0.10 0.28 0.28 99 1020.7
20260830141211 65 290 4.0 12.0 0.11 0.28 0.28 99 1020.6
20260830140711 65 293 2.0 13.0 0.12 0.27 0.27 99 1020.6
20260830140209 65 294 3.0 12.0 0.13 0.27 0.27 99 1020.5
20260830135708 66 288 3.0 17.0 0.13 0.26 0.26 99 1020.5
20260830135207 66 298 3.0 14.0 0.13 0.25 0.25 99 1020.4
20260830134728 66 295 3.0 15.0 0.13 0.24 0.23 99 1020.5
20260830134206 66 300 3.0 10.0 0.11 0.22 0.22 99 1020.5
20260830133705 66 283 4.0 14.0 0.12 0.21 0.21 99 1020.4
20260830133204 66 268 1.0 7.0 0.11 0.20 0.20 99 1020.5
20260830132703 66 276 0.0 3.0 0.10 0.19 0.19 99 1020.7